Location: Palau
(42.3086°N, 3.1507°E)
Time: 21:42:57
(UTC+00:00)

STARLINK-1215 - Visible Passes

Search period start: 29 September 2020 00:00
Search period end: 09 October 2020 00:00
Orbit: 549 x 550 km, 53.0° (Epoch: 29 September)

Date Brightness Start Highest point End Pass type
(mag) Time Alt. Az. Time Alt. Az. Time Alt. Az.
29 Sep 5.1 03:08:46 34° E 03:08:46 34° E 03:11:18 10° ESE visible
29 Sep 4.7 04:44:29 17° W 04:46:34 25° SW 04:49:57 10° S visible
30 Sep 5.9 03:04:35 19° ESE 03:04:35 19° ESE 03:05:53 10° ESE visible
30 Sep 5.1 04:40:19 18° WSW 04:40:56 18° SW 04:43:49 10° S visible
01 Oct 5.7 04:36:19 12° SW 04:36:19 12° SW 04:37:19 10° SSW visible
02 Oct 5.4 18:22:53 10° SSE 18:25:11 15° SE 18:25:31 15° ESE visible
02 Oct 5.9 20:00:06 10° SW 20:01:13 18° SW 20:01:13 18° SW visible
03 Oct 5.0 18:16:29 10° S 18:19:32 20° SE 18:21:07 16° E visible
03 Oct 5.3 19:54:38 10° WSW 19:56:48 29° WSW 19:56:48 29° WSW visible
04 Oct 4.7 18:10:23 10° S 18:13:53 27° SE 18:16:31 15° E visible
04 Oct 4.9 19:49:14 10° WSW 19:52:13 40° WNW 19:52:13 40° WNW visible
05 Oct 4.3 18:04:28 10° SSW 18:08:16 36° SE 18:11:44 12° ENE visible
05 Oct 4.8 19:43:53 10° W 19:47:25 40° NW 19:47:25 40° NW visible
06 Oct 3.9 17:58:41 10° SSW 18:02:41 50° SE 18:06:41 10° ENE visible
06 Oct 5.0 19:38:35 10° W 19:42:22 34° NNW 19:42:28 34° NNW visible
07 Oct 3.6 17:53:00 10° SW 17:57:06 68° SE 18:01:14 10° ENE visible
07 Oct 5.2 19:33:19 10° W 19:36:58 29° NNW 19:37:24 28° N visible
08 Oct 3.6 17:47:24 10° SW 17:51:33 89° SE 17:55:43 10° NE visible
08 Oct 5.4 19:28:04 10° WNW 19:31:34 25° NNW 19:32:14 24° N visible
